Regional Weather Roundup
Issued by NWS

Home | Current Version | Previous Version | Text Only | Print | Product List | Glossary On
Versions: 1 2 3 4 5 6 7 8 9 10 11 12 13 14 15 16 17 18 19 20 21 22 23 24 25 26 27 28 29 30 31 32 33 34 35 36 37 38 39 40 41 42 43 44 45 46 47 48 49 50
000
ASUS43 KLMK 030210
RWRKY
KENTUCKY REGIONAL WEATHER ROUNDUP
NATIONAL WEATHER SERVICE LOUISVILLE KY
1000 PM EDT TUE SEP 02 2014

NOTE "FAIR" INDICATES FEW OR NO CLOUDS BELOW 12,000 FEET
WITH NO SIGNIFICANT WEATHER AND/OR OBSTRUCTIONS TO VISIBILITY.

KYZ001>023-026-027-061>063-070>075-030300-
WESTERN AND SOUTH CENTRAL KENTUCKY

CITY           SKY/WX    TMP DP  RH WIND       PRES   REMARKS
PADUCAH        MOCLDY    75  70  84 CALM      29.98R
HENDERSON      PTCLDY    72  68  88 CALM      29.98R
OWENSBORO      CLEAR     75  72  88 CALM      29.99
HOPKINSVILLE   CLOUDY    73  73 100 SW3       30.00R
BOWLING GREEN  MOCLDY    74  70  87 SW6       30.00R
GLASGOW        NOT AVBL
$$

KYZ024-025-028>034-038-045-046-053-030300-
NORTH CENTRAL KENTUCKY

CITY           SKY/WX    TMP DP  RH WIND       PRES   REMARKS
LOUISVILLE/SDF MOCLDY    77  72  84 NE5       29.98R
LOUISVILLE/LOU MOCLDY    76  72  87 CALM      29.98R
FORT KNOX      CLOUDY    74  74 100 N2        29.98R
$$

KYZ035>037-039>044-047>052-055>060-089>105-030300-
NORTHEAST KENTUCKY

CITY           SKY/WX    TMP DP  RH WIND       PRES   REMARKS
LEXINGTON      MOCLDY    71  68  90 S5        30.01R
COVINGTON      MOCLDY    70  69  97 CALM      29.98R
FRANKFORT      MOCLDY    70  69  97 CALM      29.99R
$$

KYZ054-064>069-076>088-106>120-030300-
SOUTHEAST KENTUCKY

CITY           SKY/WX    TMP DP  RH WIND       PRES   REMARKS
JACKSON        CLOUDY    69  67  93 CALM      30.05R FOG
LONDON         CLOUDY    71  67  87 S3        30.06R
SOMERSET       MOCLDY    70  68  94 CALM      30.04S
MIDDLESBORO    LGT RAIN  69  68  96 CALM      30.09S
MONTICELLO     CLOUDY    73  71  93 CALM      30.04S
$$




USA.gov is the U.S. government's official web portal to all federal, state and local government web resources and services.